Date String (YYYY-MM-DD hh:mm:ss) UTC,Instrument flags,Ambient pressure (hPa),Sample flow (lpm),Bypass flow (lpm),Sample temperature (°C),Ambient temperature (°C),ASC tube jacket temperature (°C),LED temperature (°C),Box temperature (°C),Sample RH (%),Span deviation,Mass concentration (μg/m³),Mass concentration (μg/m³),Mass concentration (μg/m³)
DateTimeUTC,F1_M11,P_M11,Q1_M11,Q2_M11,T1_M11,T2_M11,T3_M11,T4_M11,T5_M11,U1_M11,ZSPAN_M11,X0_M11,X2_M11,X1_M11
2022-07-07 08:00:00,,0829.1,5.00,0.00,31.6,29.4,00.0,40.2,32.8,33.7,0000.0,0011.13,0005.80,0004.85
2022-07-07 08:01:00,,0829.0,5.01,0.00,31.6,29.1,00.0,40.1,32.7,33.7,0000.0,0011.50,0005.73,0004.78
2022-07-07 08:02:00,,0829.0,5.00,0.00,31.6,28.3,00.0,40.1,32.6,33.9,0000.0,0011.33,0005.65,0004.73
2022-07-07 08:03:00,,0829.1,5.00,0.00,31.5,27.8,00.0,40.0,32.5,34.1,0000.0,0011.17,0005.61,0004.70
2022-07-07 08:04:00,,0829.0,5.01,0.00,31.4,27.8,00.0,40.0,32.3,34.3,0000.0,0011.17,0005.61,0004.70
2022-07-07 08:05:00,,0829.1,5.00,0.00,31.2,27.8,00.0,39.9,32.2,34.6,0000.0,0011.17,0005.62,0004.71
2022-07-07 08:06:00,,0829.1,5.00,0.00,31.1,27.9,00.0,39.9,32.2,34.8,0000.0,0010.89,0005.61,0004.73
2022-07-07 08:07:00,,0829.1,5.01,0.00,31.1,28.0,00.0,39.8,32.2,35.0,0000.0,0010.98,0005.65,0004.75
2022-07-07 08:08:00,,0829.0,4.99,0.00,31.1,28.2,00.0,39.8,32.3,35.1,0000.0,0011.04,0005.70,0004.78
2022-07-07 08:09:00,,0829.1,5.01,0.00,31.4,28.3,00.0,39.8,32.4,34.7,0000.0,0011.55,0005.71,0004.79
2022-07-07 08:10:00,,0829.0,5.01,0.00,31.5,28.4,00.0,39.8,32.4,34.6,0000.0,0012.86,0005.77,0004.83
2022-07-07 08:11:00,,0829.0,5.00,0.00,31.6,28.5,00.0,39.8,32.4,34.8,0000.0,0012.82,0005.87,0004.96
2022-07-07 08:12:00,,0829.0,4.99,0.00,31.6,28.6,00.0,39.8,32.4,34.9,-000.2,0012.40,0006.00,0005.14
2022-07-07 08:13:00,,0829.1,5.01,0.00,31.6,28.7,00.0,39.8,32.4,34.9,-000.4,0012.86,0006.14,0005.29
2022-07-07 08:14:00,,0829.0,5.01,0.00,31.6,28.8,00.0,39.8,32.4,35.1,-000.0,0013.18,0006.30,0005.44
2022-07-07 08:15:00,,0829.1,4.99,0.00,31.8,28.8,00.0,39.9,32.6,34.8,0000.5,0013.36,0006.43,0005.56
2022-07-07 08:16:00,,0829.1,5.00,0.00,31.9,28.9,00.0,39.9,32.6,34.4,0000.6,0013.46,0006.51,0005.64
2022-07-07 08:17:00,,0829.1,5.00,0.00,32.0,29.0,00.0,39.9,32.6,34.3,0000.5,0013.66,0006.63,0005.75
2022-07-07 08:18:00,,0829.1,5.00,0.00,32.0,29.0,00.0,40.0,32.6,34.4,-000.1,0013.50,0006.70,0005.85
2022-07-07 08:19:00,,0829.1,5.00,0.00,32.0,29.1,00.0,40.0,32.6,34.5,-000.2,0013.72,0006.81,0005.98
2022-07-07 08:20:00,,0829.1,5.00,0.00,32.0,29.1,00.0,40.1,32.6,34.8,-000.5,0013.44,0007.02,0006.22
2022-07-07 08:21:00,,0829.1,4.99,0.00,32.0,29.2,00.0,40.1,32.7,35.0,-000.5,0012.61,0007.24,0006.44
2022-07-07 08:22:00,,0829.1,5.00,0.00,32.0,29.2,00.0,40.1,32.7,35.1,-000.0,0012.76,0007.40,0006.59
2022-07-07 08:23:00,,0829.1,4.99,0.00,32.2,29.2,00.0,40.2,32.9,34.7,-000.1,0013.33,0007.54,0006.73
2022-07-07 08:24:00,,0829.1,5.01,0.00,32.3,29.3,00.0,40.2,32.9,34.5,-000.3,0013.36,0007.72,0006.90
2022-07-07 08:25:00,,0829.2,5.01,0.00,32.3,29.3,00.0,40.2,32.9,34.5,-000.5,0013.41,0007.90,0007.08
2022-07-07 08:26:00,,0829.2,5.00,0.00,32.3,29.3,00.0,40.3,32.9,34.5,-000.9,0013.51,0008.10,0007.29
2022-07-07 08:27:00,,0829.1,5.00,0.00,32.3,29.4,00.0,40.3,32.9,34.5,-000.9,0013.75,0008.37,0007.56
2022-07-07 08:28:00,,0829.0,5.00,0.00,32.2,29.4,00.0,40.3,32.8,34.6,-001.0,0014.50,0008.60,0007.80
2022-07-07 08:29:00,,0829.1,5.00,0.00,32.2,29.4,00.0,40.4,32.9,34.7,-000.9,0014.70,0008.81,0008.01
2022-07-07 08:30:00,,0829.1,4.99,0.00,32.2,29.4,00.0,40.4,32.9,34.9,-001.0,0015.17,0009.02,0008.17
2022-07-07 08:31:00,,0829.0,5.00,0.00,32.2,29.5,00.0,40.4,32.9,35.0,-001.2,0015.35,0009.13,0008.25
2022-07-07 08:32:00,,0829.0,5.00,0.00,32.3,29.5,00.0,40.4,33.0,34.7,-001.1,0015.83,0009.13,0008.26
2022-07-07 08:33:00,,0829.0,4.99,0.00,32.4,29.5,00.0,40.4,33.0,34.5,-001.3,0016.20,0009.15,0008.30
2022-07-07 08:34:00,,0829.0,5.00,0.00,32.4,29.5,00.0,40.5,33.0,34.4,-001.3,0015.89,0009.26,0008.39
2022-07-07 08:35:00,,0829.0,4.99,0.00,32.4,29.6,00.0,40.5,33.0,34.4,-001.4,0015.96,0009.32,0008.46
2022-07-07 08:36:00,,0829.0,5.00,0.00,32.4,29.6,00.0,40.5,33.0,34.4,-001.7,0016.11,0009.38,0008.52
2022-07-07 08:37:00,,0829.0,5.00,0.00,32.3,29.6,00.0,40.5,33.0,34.4,-001.7,0016.51,0009.40,0008.54
2022-07-07 08:38:00,,0829.0,5.01,0.00,32.3,29.1,00.0,40.5,33.0,34.3,-001.8,0016.84,0009.42,0008.57
2022-07-07 08:39:00,,0829.0,4.99,0.00,32.3,28.4,00.0,40.4,32.9,34.4,-001.7,0016.23,0009.45,0008.63
2022-07-07 08:40:00,,0828.9,5.00,0.00,32.2,28.0,00.0,40.4,32.8,34.5,-001.5,0016.24,0009.56,0008.72
2022-07-07 08:41:00,,0828.9,5.01,0.00,32.0,28.0,00.0,40.4,32.6,34.8,-001.4,0015.93,0009.65,0008.80
2022-07-07 08:42:00,,0828.8,5.00,0.00,31.9,28.0,00.0,40.4,32.5,35.0,-001.1,0015.90,0009.70,0008.86
2022-07-07 08:43:00,,0828.8,4.99,0.00,31.9,28.1,00.0,40.3,32.6,35.0,-001.2,0015.64,0009.81,0008.95
2022-07-07 08:44:00,,0828.9,5.01,0.00,32.0,28.3,00.0,40.3,32.7,34.7,-001.1,0015.22,0009.86,0008.97
2022-07-07 08:45:00,,0828.8,5.00,0.00,32.1,28.4,00.0,40.3,32.7,34.6,-000.9,0015.23,0009.79,0008.88
2022-07-07 08:46:00,,0829.0,5.00,0.00,32.1,28.5,00.0,40.3,32.7,34.5,-000.6,0014.90,0009.67,0008.73
2022-07-07 08:47:00,,0829.2,4.99,0.00,32.1,28.7,00.0,40.3,32.6,34.4,-000.3,0014.74,0009.58,0008.64
2022-07-07 08:48:00,,0829.4,5.01,0.00,32.0,28.8,00.0,40.3,32.6,34.4,-000.1,0014.52,0009.53,0008.56
2022-07-07 08:49:00,,0829.3,5.01,0.00,32.0,28.8,00.0,40.3,32.6,34.4,0000.1,0014.51,0009.42,0008.42
2022-07-07 08:50:00,,0829.4,5.01,0.00,32.0,28.9,00.0,40.3,32.6,34.4,-000.1,0014.73,0009.28,0008.27
2022-07-07 08:51:00,,0829.0,5.00,0.00,31.9,29.0,00.0,40.3,32.6,34.6,-000.5,0014.84,0009.18,0008.17
2022-07-07 08:52:00,,0828.9,5.00,0.00,31.9,29.0,00.0,40.3,32.7,34.6,-000.5,0014.69,0009.13,0008.15
2022-07-07 08:53:00,,0828.9,5.01,0.00,31.8,29.1,00.0,40.3,32.7,34.7,-000.6,0014.67,0009.07,0008.10
2022-07-07 08:54:00,,0828.9,5.01,0.00,31.8,29.1,00.0,40.3,32.7,34.7,-000.7,0014.28,0008.94,0008.01
2022-07-07 08:55:00,,0828.8,4.99,0.00,31.8,29.2,00.0,40.3,32.7,34.8,-000.7,0014.03,0008.89,0007.99
2022-07-07 08:56:00,,0828.8,5.01,0.00,31.7,29.2,00.0,40.3,32.7,34.9,-000.8,0013.88,0008.86,0008.00
2022-07-07 08:57:00,,0829.3,5.00,0.00,31.7,29.3,00.0,40.3,32.7,34.9,-001.2,0014.11,0008.92,0008.07
2022-07-07 08:58:00,,0829.4,5.00,0.00,31.7,29.3,00.0,40.3,32.7,34.9,-001.3,0014.14,0009.00,0008.14
2022-07-07 08:59:00,,0828.9,5.00,0.00,31.6,29.3,00.0,40.3,32.7,34.9,-001.5,0014.10,0009.10,0008.24
